TimePST,TemperatureF,Dew PointF,Humidity,Sea Level PressureIn,VisibilityMPH,Wind Direction,Wind SpeedMPH,Gust SpeedMPH,PrecipitationIn,Events,Conditions,WindDirDegrees,DateUTC
12:53 AM,30.9,27.0,85,30.68,8.0,SE,3.5,-,N/A,,Clear,140,2013-01-16 08:53:00
1:53 AM,28.9,25.0,85,30.68,7.0,Calm,Calm,-,N/A,,Scattered Clouds,0,2013-01-16 09:53:00
2:06 AM,28.4,24.8,86,30.68,8.0,SE,4.6,-,N/A,,Mostly Cloudy,130,2013-01-16 10:06:00
2:46 AM,30.2,28.4,93,30.69,1.0,SE,5.8,-,N/A,,Overcast,130,2013-01-16 10:46:00
2:53 AM,30.9,28.0,89,30.68,1.0,SE,4.6,-,N/A,,Overcast,130,2013-01-16 10:53:00
3:39 AM,32.0,28.4,87,30.68,0.2,SE,3.5,-,N/A,Fog,Fog,140,2013-01-16 11:39:00
3:53 AM,32.0,30.0,92,30.68,0.2,SE,3.5,-,N/A,Fog,Fog,130,2013-01-16 11:53:00
4:53 AM,32.0,30.0,92,30.67,0.2,SSE,3.5,-,N/A,Fog,Fog,160,2013-01-16 12:53:00
5:02 AM,33.8,30.2,87,30.67,0.8,Calm,Calm,-,N/A,,Mist,0,2013-01-16 13:02:00
5:53 AM,33.1,30.0,89,30.66,0.5,Calm,Calm,-,N/A,Fog,Fog,0,2013-01-16 13:53:00
6:53 AM,32.0,30.0,92,30.65,0.5,Calm,Calm,-,N/A,Fog,Fog,0,2013-01-16 14:53:00
7:53 AM,32.0,30.0,92,30.65,0.2,Calm,Calm,-,N/A,Fog,Fog,0,2013-01-16 15:53:00
8:53 AM,32.0,30.0,92,30.65,0.2,Calm,Calm,-,N/A,Fog,Fog,0,2013-01-16 16:53:00
9:53 AM,33.1,30.9,92,30.65,0.2,Calm,Calm,-,N/A,Fog,Fog,0,2013-01-16 17:53:00
10:53 AM,33.1,30.9,92,30.64,0.2,SE,3.5,-,N/A,Fog,Fog,140,2013-01-16 18:53:00
11:06 AM,33.8,30.2,87,30.64,0.5,SE,3.5,-,N/A,Fog,Fog,140,2013-01-16 19:06:00
11:20 AM,33.8,30.2,87,30.63,1.0,SSE,3.5,-,N/A,,Mist,160,2013-01-16 19:20:00
11:46 AM,33.8,32.0,93,30.63,3.0,Calm,Calm,-,N/A,,Scattered Clouds,0,2013-01-16 19:46:00
11:53 AM,33.8,32.0,93,30.63,3.0,Calm,Calm,-,N/A,,Scattered Clouds,0,2013-01-16 19:53:00
12:53 PM,41.0,33.1,73,30.61,7.0,Calm,Calm,-,N/A,,Partly Cloudy,0,2013-01-16 20:53:00
1:53 PM,42.1,33.1,70,30.58,10.0,Calm,Calm,-,N/A,,Clear,0,2013-01-16 21:53:00
2:53 PM,44.1,30.9,60,30.58,10.0,Calm,Calm,-,N/A,,Clear,0,2013-01-16 22:53:00
3:53 PM,43.0,30.9,62,30.57,10.0,Variable,3.5,-,N/A,,Clear,0,2013-01-16 23:53:00
4:53 PM,42.1,32.0,67,30.56,10.0,Calm,Calm,-,N/A,,Clear,0,2013-01-17 00:53:00
5:53 PM,41.0,30.9,67,30.56,10.0,Calm,Calm,-,N/A,,Clear,0,2013-01-17 01:53:00
6:53 PM,39.9,30.0,68,30.56,10.0,Calm,Calm,-,N/A,,Clear,0,2013-01-17 02:53:00
7:53 PM,37.9,30.9,76,30.55,10.0,Calm,Calm,-,N/A,,Clear,0,2013-01-17 03:53:00
8:53 PM,35.1,30.0,82,30.54,10.0,Calm,Calm,-,N/A,,Clear,0,2013-01-17 04:53:00
9:53 PM,35.1,30.9,85,30.53,10.0,Calm,Calm,-,N/A,,Clear,0,2013-01-17 05:53:00
10:53 PM,36.0,30.0,79,30.53,10.0,Calm,Calm,-,N/A,,Clear,0,2013-01-17 06:53:00
11:53 PM,33.1,28.9,85,30.53,8.0,Calm,Calm,-,N/A,,Clear,0,2013-01-17 07:53:00